Location: Theydon Bois
(51.6750°N, 0.1050°E)
Time: 01:44:17
(UTC+00:00)

ISS - Visible Passes

Search period start: 16 December 2017 00:00
Search period end: 26 December 2017 00:00
Orbit: 402 x 406 km, 51.6° (Epoch: 16 December)

Date Brightness Start Highest point End Pass type
(mag) Time Alt. Az. Time Alt. Az. Time Alt. Az.
16 Dec -0.6 17:39:14 10° WSW 17:40:44 13° SW 17:42:15 10° SSW visible
17 Dec -0.8 16:46:17 10° W 16:48:44 19° SW 16:51:11 10° SSE visible
19 Dec 0.0 16:39:32 10° WSW 16:40:19 11° SW 16:41:06 10° SSW visible
